Weather in Borodynovka

Russia / Stavropol Krai     44°08′42″N   43°07′58″E
temp.,
°C
wind,
m/s
gust,
m/s
humid.,
%
clouds,
%
prec.,
mm/h
press.,
hPa
HPBL,
m
17 may, mon
mon1700:00+16e3361100 0.0 100555
03:00+15ese2258100 0.0 100427
06:00+16ese22660 0.0 100457
09:00+22nnw21570 0.0 1005406
12:00+26n325029 0.0 10051093
15:00+27n334944 0.0 10051506
18:00+23w3572100 0.3 1005143
21:00+17wnw61191100 4.8 1008405
18 may, tue
tue1800:00+16wnw81589100 0.6 1008527
03:00+15wnw61392100 1.1 1009558
06:00+14w61289100 1.1 1010531
09:00+15w61187100 1.8 1011619
12:00+17wnw3775100 0.4 1011629
15:00+20nw2460100 0.6 10111159
18:00+20ene226816 0.0 1011152
21:00+15sse118818 0.0 101211
19 may, wed
wed1900:00+14sw11861 0.0 101111
03:00+13s01873 0.0 101111
06:00+15ese238486 0.0 100992
09:00+17w897376 0.0 1011752
12:00+18nw8106886 0.1 10131090
15:00+17n257631 0.3 1014408
18:00+16w1179100 2.7 101619
21:00+14w118361 2.9 101711
20 may, thu
thu2000:00+13n118156 0.0 101711
03:00+11e00830 0.0 101810
06:00+12ese23890 0.0 1019105
09:00+17se457437 0.0 1019911
12:00+21se44560 0.0 10171393
15:00+23ese45510 0.0 10171619
18:00+20ese58651 0.0 1017396
21:00+15se34740 0.0 101855
21 may, fri
fri2100:00+13se34770 0.0 101757
03:00+12ese35820 0.0 101773
06:00+14se38810 0.0 1017224
09:00+20ese710570 0.0 1016783
12:00+23se89480 0.0 10161171
15:00+25ese79464 0.0 10151306
18:00+23ese510584 0.0 1014363
21:00+17se48700 0.0 1015123